Location: Newark
(60.6561°N, 46.5772°E)
Time: 06:58:34
(UTC+00:00)

Transit 2A Rocket - All Passes

Search period start: 16 October 2019 00:00
Search period end: 26 October 2019 00:00
Orbit: 593 x 910 km, 66.7° (Epoch: 15 October)

Date Brightness Start Highest point End Pass type
(mag) Time Alt. Az. Time Alt. Az. Time Alt. Az.
16 Oct - 03:02:10 10° S 03:06:29 31° ESE 03:10:32 10° ENE daylight
16 Oct - 04:43:53 10° SW 04:48:45 82° NW 04:53:15 10° NE daylight
16 Oct - 06:27:18 10° W 06:31:46 41° NNW 06:35:58 10° ENE daylight
16 Oct - 08:10:44 10° WNW 08:15:04 42° NNE 08:19:14 10° E daylight
16 Oct - 09:53:33 10° NW 09:58:01 89° SSW 10:02:20 10° SE daylight
16 Oct - 11:36:32 10° WNW 11:40:03 24° WSW 11:43:32 10° S daylight
17 Oct - 02:20:27 10° SSE 02:24:11 22° ESE 02:27:44 10° ENE visible
17 Oct - 04:01:21 10° SW 04:06:13 76° SE 04:10:43 10° NE daylight
17 Oct - 05:44:28 10° W 05:49:03 47° NNW 05:53:20 10° ENE daylight
17 Oct - 07:28:02 10° WNW 07:32:20 39° N 07:36:27 10° ENE daylight
17 Oct - 09:10:59 10° NW 09:15:27 70° NNE 09:19:45 10° ESE daylight
17 Oct - 10:53:46 10° WNW 10:57:46 35° SW 11:01:42 10° S daylight
18 Oct - 01:39:14 10° SSE 01:41:58 15° ESE 01:44:36 10° ENE visible
18 Oct - 03:18:58 10° SSW 03:23:44 55° SE 03:28:10 10° NE daylight
18 Oct - 05:01:41 10° WSW 05:06:21 56° NNW 05:10:45 10° NE daylight
18 Oct - 06:45:17 10° WNW 06:49:35 38° N 06:53:42 10° ENE daylight
18 Oct - 08:28:24 10° NW 08:32:49 55° NNE 08:37:04 10° ESE daylight
18 Oct - 10:11:07 10° WNW 10:15:23 51° SW 10:19:34 10° SSE daylight
18 Oct - 11:55:11 10° W 11:56:58 12° WSW 11:58:44 10° SW daylight
19 Oct - 02:36:47 10° SSW 02:41:19 39° SE 02:45:33 10° ENE visible
19 Oct - 04:18:57 10° WSW 04:23:44 70° NNW 04:28:12 10° NE daylight
19 Oct - 06:02:28 10° WNW 06:06:50 39° N 06:10:59 10° ENE daylight
19 Oct - 07:45:47 10° WNW 07:50:08 46° NNE 07:54:19 10° E daylight
19 Oct - 09:28:32 10° NW 09:32:56 73° SW 09:37:14 10° SE daylight
19 Oct - 11:11:46 10° WNW 11:14:48 19° WSW 11:17:49 10° SSW daylight
20 Oct - 01:54:52 10° S 01:58:59 27° ESE 02:02:51 10° ENE visible
20 Oct - 03:36:19 10° SW 03:41:09 89° NW 03:45:39 10° NE daylight
20 Oct - 05:19:39 10° W 05:24:06 43° NNW 05:28:19 10° ENE daylight
20 Oct - 07:03:07 10° WNW 07:07:24 41° N 07:11:32 10° E daylight
20 Oct - 08:45:58 10° NW 08:50:25 83° NE 08:54:44 10° SE daylight
20 Oct - 10:28:51 10° WNW 10:32:33 27° WSW 10:36:12 10° S daylight
21 Oct - 01:13:18 10° SSE 01:16:42 19° ESE 01:19:58 10° ENE visible
21 Oct - 02:53:50 10° SW 02:58:38 68° SE 03:03:07 10° NE visible
21 Oct - 04:36:49 10° W 04:41:24 49° NNW 04:45:42 10° NE daylight
21 Oct - 06:20:24 10° WNW 06:24:40 38° N 06:28:46 10° ENE daylight
21 Oct - 08:03:24 10° NW 08:07:50 64° NNE 08:12:06 10° ESE daylight
21 Oct - 09:46:08 10° WNW 09:50:14 40° SW 09:54:16 10° SSE daylight
22 Oct - 00:32:22 10° SE 00:34:31 13° ESE 00:36:35 10° E visible
22 Oct - 02:11:31 10° SSW 02:16:11 49° SE 02:20:32 10° ENE visible
22 Oct - 03:54:03 10° WSW 03:58:44 60° NNW 04:03:08 10° NE daylight
22 Oct - 05:37:37 10° WNW 05:41:55 38° N 05:46:01 10° ENE daylight
22 Oct - 07:20:48 10° NW 07:25:10 51° NNE 07:29:24 10° E daylight
22 Oct - 09:03:30 10° NW 09:07:49 58° SW 09:12:03 10° SSE daylight
22 Oct - 10:47:11 10° W 10:49:30 14° WSW 10:51:50 10° SW daylight
23 Oct - 01:29:25 10° S 01:33:47 34° SE 01:37:54 10° ENE visible
23 Oct - 03:11:21 10° WSW 03:16:07 76° NNW 03:20:34 10° NE visible
23 Oct - 04:54:49 10° W 04:59:11 40° N 05:03:19 10° ENE daylight
23 Oct - 06:38:10 10° WNW 06:42:29 44° NNE 06:46:38 10° E daylight
23 Oct - 08:20:56 10° NW 08:25:21 81° SW 08:29:40 10° SE daylight
23 Oct - 10:04:00 10° WNW 10:07:18 21° WSW 10:10:35 10° SSW daylight
24 Oct - 00:47:36 10° S 00:51:28 24° ESE 00:55:08 10° ENE visible
24 Oct - 02:28:46 10° SW 02:33:34 83° SE 02:38:02 10° NE visible
24 Oct - 04:11:59 10° W 04:16:26 44° NNW 04:20:40 10° ENE daylight
24 Oct - 05:55:29 10° WNW 05:59:45 40° N 06:03:51 10° E daylight
24 Oct - 07:38:22 10° NW 07:42:48 76° NNE 07:47:07 10° ESE daylight
24 Oct - 09:21:11 10° WNW 09:25:02 31° SW 09:28:51 10° S daylight
25 Oct - 00:06:13 10° SSE 00:09:14 17° ESE 00:12:08 10° ENE visible
25 Oct - 01:46:20 10° SW 01:51:04 61° SE 01:55:29 10° NE visible
25 Oct - 03:29:11 10° W 03:33:45 52° NNW 03:38:04 10° NE daylight
25 Oct - 05:12:45 10° WNW 05:17:00 38° N 05:21:05 10° ENE daylight
25 Oct - 06:55:48 10° NW 07:00:11 59° NNE 07:04:27 10° ESE daylight
25 Oct - 08:38:31 10° WNW 08:42:41 45° SW 08:46:48 10° SSE daylight
25 Oct - 10:23:12 10° W 10:24:10 11° WSW 10:25:08 10° WSW daylight
25 Oct - 23:25:51 10° ESE 23:27:04 11° ESE 23:28:16 10° E visible
